sat.trackr.live / text

‹ back to catalog

YUBILEINY (RS30)

NORAD 32953 · 2008-025A

PAYLOAD ACTIVE UNKNOWN

§ Identity

Operator
Country
CIS
Launch date
2008-05-23
Launch site
PLMSC
Launch vehicle
Mass (kg)
RCS (m²)
0.39

Purposes: comms

External: N2YO · Heavens-Above · Gunter

§ Orbital elements

Epoch: 2026-09-20T03:26:03.211008Z

Period
115.83 min
Inclination
82.5014°
Eccentricity
0.0020713
Mean motion
12.43183099 rev/d
Perigee alt
1,476.8 km
Apogee alt
1,509.4 km
Semi-major
7,871.3 km
B*
1.7043e-4
RAAN
296.3825°
Arg perigee
104.0952°
Mean anomaly
256.2431°
Rev number
83,149

§ Raw data

YUBILEINY (RS30)1 32953U 08025A   26263.14309272  .00000034  00000+0  17043-3 0  99982 32953  82.5014 296.3825 0020713 104.0952 256.2431 12.43183099831491

JSON: /api/v1/satellites/32953 · /tle

For live sub-satellite position, see the globe view (requires WebGL).

§ Visibility from observer

Set your observer location to see the next 7 days of passes ≥ 10°. The values pass through the URL so the page stays shareable.

No JS? Fill the form by hand. The geolocation button needs JavaScript.

§ Radio — SatNOGS DB

ModeDescriptionDownlinkUplink
FM 435.353 435.353 MHz
CW PE0SAT - CW Beacon 435.316 MHz
PSK Telemetry Beacon 1 Beacon 435.215 MHz
DOKA Telemetry Beacon 2 Beacon 435.315 MHz

4 transmitters · refreshed weekly from db.satnogs.org